Date String (YYYY-MM-DD hh:mm:ss) UTC,Instrument flags,absolute air pressure of the measurement (hPa),sample flow rate (lpm),inlet stack bypass flow (lpm),air temperature of the measurement (°C),ambient temperature measured by the external sensor (°C),aerosol sample conditioner tube jacket temperature (°C),OPC LED temperature (°C),internal box temperature (°C),relative humidity of the measurement (%),span deviation,mass concentration of particles derived from Lorenz-Mie calculation of OPC scattering (μg/m³),mass concentration of particles derived from Lorenz-Mie calculation of OPC scattering (μg/m³),mass concentration of particles derived from Lorenz-Mie calculation of OPC scattering (μg/m³)
DateTimeUTC,F1_M11,P_M11,Q1_M11,Q2_M11,T1_M11,T2_M11,T3_M11,T4_M11,T5_M11,U1_M11,ZSPAN_M11,X0_M11,X2_M11,X1_M11
2023-09-25 19:00:00,SystemResetWarning,0836.2,5.00,000.00,028.0,026.9,000.0,036.3,029.7,14.5,0001.7,0011.73,0003.91,0003.38
2023-09-25 19:01:00,SystemResetWarning,0836.2,4.99,000.00,028.0,027.0,000.0,036.3,029.8,13.7,0002.7,0011.69,0003.93,0003.39
2023-09-25 19:02:00,SystemResetWarning,0836.2,4.99,000.00,028.1,027.2,000.0,036.3,029.8,13.1,0003.3,0011.67,0003.95,0003.39
2023-09-25 19:03:00,SystemResetWarning,0836.2,5.00,000.00,028.1,026.6,000.0,036.3,029.8,12.4,0003.8,0011.63,0003.93,0003.39
2023-09-25 19:04:00,SystemResetWarning,0836.2,5.01,000.00,028.0,024.9,000.0,036.2,029.4,13.0,0003.4,0011.64,0003.94,0003.39
2023-09-25 19:05:00,SystemResetWarning,0836.1,5.01,000.00,027.9,024.3,000.0,036.2,029.3,13.3,0003.7,0011.08,0003.93,0003.40
2023-09-25 19:06:00,SystemResetWarning,0836.1,5.02,000.00,027.8,024.6,000.0,036.1,029.2,12.6,0002.8,0010.19,0003.92,0003.39
2023-09-25 19:07:00,SystemResetWarning,0836.1,4.99,000.00,027.8,024.9,000.0,036.2,029.2,12.5,0000.0,0010.32,0003.93,0003.39
2023-09-25 19:08:00,SystemResetWarning,0836.1,5.00,000.00,027.8,025.3,000.0,036.2,029.3,12.2,0000.0,0009.69,0003.97,0003.40
2023-09-25 19:09:00,SystemResetWarning,0836.1,5.00,000.00,027.8,025.6,000.0,036.2,029.4,11.5,0000.0,0009.16,0004.00,0003.42
2023-09-25 19:10:00,SystemResetWarning,0836.1,5.01,000.00,027.8,026.0,000.0,036.2,029.4,11.9,0000.0,0009.10,0004.01,0003.42
2023-09-25 19:11:00,SystemResetWarning,0836.1,5.01,000.00,027.9,026.3,000.0,036.2,029.5,12.2,0000.0,0009.71,0004.04,0003.42
2023-09-25 19:12:00,SystemResetWarning,0836.1,5.00,000.00,027.9,026.5,000.0,036.2,029.6,12.4,0000.0,0009.98,0004.06,0003.42
2023-09-25 19:13:00,SystemResetWarning,0836.1,5.00,000.00,028.0,026.7,000.0,036.2,029.7,12.6,0000.0,0010.65,0004.04,0003.42
2023-09-25 19:14:00,SystemResetWarning,0836.1,5.00,000.00,028.0,026.9,000.0,036.3,029.7,11.9,0000.0,0011.11,0004.06,0003.43
2023-09-25 19:15:00,SystemResetWarning,0836.1,5.00,000.00,028.1,027.1,000.0,036.3,029.8,11.4,0000.0,0011.36,0004.08,0003.43
2023-09-25 19:16:00,SystemResetWarning,0836.1,5.00,000.00,028.1,026.9,000.0,036.3,029.8,11.0,0000.0,0011.29,0004.08,0003.43
2023-09-25 19:17:00,SystemResetWarning,0836.1,4.99,000.00,028.0,025.3,000.0,036.2,029.5,11.1,0000.0,0011.78,0004.08,0003.45
2023-09-25 19:18:00,SystemResetWarning,0836.0,5.01,000.00,027.9,024.2,000.0,036.2,029.3,11.6,0000.0,0011.87,0004.13,0003.45
2023-09-25 19:19:00,SystemResetWarning,0836.0,5.01,000.00,027.9,024.3,000.0,036.1,029.2,11.7,0000.3,0011.65,0004.11,0003.46
2023-09-25 19:20:00,SystemResetWarning,0836.0,5.00,000.00,027.8,024.7,000.0,036.1,029.2,11.6,0002.1,0011.55,0004.12,0003.47
2023-09-25 19:21:00,SystemResetWarning,0835.9,4.99,000.00,027.8,025.1,000.0,036.2,029.2,11.1,0002.3,0011.07,0004.06,0003.46
2023-09-25 19:22:00,SystemResetWarning,0835.9,5.00,000.00,027.8,025.5,000.0,036.2,029.3,10.4,0000.0,0010.39,0004.02,0003.46
2023-09-25 19:23:00,SystemResetWarning,0835.9,5.01,000.00,027.8,025.8,000.0,036.2,029.4,10.6,0000.0,0010.17,0004.01,0003.46
2023-09-25 19:24:00,SystemResetWarning,0835.9,4.99,000.00,027.8,026.1,000.0,036.2,029.5,10.9,0000.0,0009.99,0004.00,0003.46
2023-09-25 19:25:00,SystemResetWarning,0835.9,5.00,000.00,027.9,026.4,000.0,036.2,029.6,10.8,0000.0,0010.39,0003.99,0003.47
2023-09-25 19:26:00,SystemResetWarning,0835.9,5.00,000.00,027.9,026.7,000.0,036.2,029.7,10.9,0000.0,0010.16,0004.00,0003.46
2023-09-25 19:27:00,SystemResetWarning,0835.9,5.00,000.00,028.0,026.9,000.0,036.2,029.7,11.1,0000.0,0010.25,0004.03,0003.47
2023-09-25 19:28:00,SystemResetWarning,0835.9,5.00,000.00,028.0,027.0,000.0,036.3,029.8,11.0,0000.0,0009.84,0004.04,0003.47
2023-09-25 19:29:00,SystemResetWarning,0835.9,5.00,000.00,028.1,027.1,000.0,036.3,029.8,10.9,0000.0,0009.49,0004.02,0003.47
2023-09-25 19:30:00,SystemResetWarning,0835.9,4.99,000.00,028.1,025.9,000.0,036.2,029.6,10.9,0000.0,0009.85,0004.01,0003.46
2023-09-25 19:31:00,SystemResetWarning,0835.9,5.00,000.00,027.9,024.3,000.0,036.2,029.2,11.2,0000.0,0009.70,0004.01,0003.44
2023-09-25 19:32:00,SystemResetWarning,0835.9,5.01,000.00,027.9,024.2,000.0,036.1,029.2,11.4,0000.0,0010.08,0004.02,0003.42
2023-09-25 19:33:00,SystemResetWarning,0835.8,5.01,000.00,027.8,024.5,000.0,036.1,029.2,11.1,0000.0,0010.82,0004.03,0003.41
2023-09-25 19:34:00,SystemResetWarning,0835.8,4.99,000.00,027.7,024.9,000.0,036.1,029.2,11.1,0000.0,0011.38,0004.01,0003.41
2023-09-25 19:35:00,SystemResetWarning,0835.9,5.00,000.00,027.8,025.3,000.0,036.1,029.3,11.1,0000.0,0010.92,0004.03,0003.39
2023-09-25 19:36:00,SystemResetWarning,0835.8,5.00,000.00,027.8,025.6,000.0,036.2,029.3,11.0,0000.0,0010.16,0004.02,0003.38
2023-09-25 19:37:00,SystemResetWarning,0835.8,5.00,000.00,027.8,026.0,000.0,036.2,029.4,10.9,0000.0,0010.27,0004.02,0003.37
2023-09-25 19:38:00,SystemResetWarning,0835.8,5.01,000.00,027.8,026.3,000.0,036.2,029.5,11.0,0000.0,0010.75,0004.00,0003.34
2023-09-25 19:39:00,SystemResetWarning,0835.7,4.99,000.00,027.9,026.5,000.0,036.2,029.6,11.1,0000.0,0011.36,0004.01,0003.32
2023-09-25 19:40:00,SystemResetWarning,0835.8,5.00,000.00,027.9,026.8,000.0,036.2,029.7,11.4,0000.0,0011.44,0004.00,0003.30
2023-09-25 19:41:00,SystemResetWarning,0835.8,4.99,000.00,028.0,026.9,000.0,036.2,029.7,11.3,0000.0,0011.16,0003.98,0003.29
2023-09-25 19:42:00,SystemResetWarning,0835.7,5.01,000.00,028.0,027.1,000.0,036.3,029.8,11.5,0000.0,0010.95,0003.95,0003.29
2023-09-25 19:43:00,SystemResetWarning,0835.7,4.99,000.00,028.1,026.5,000.0,036.3,029.7,11.8,0000.0,0010.61,0003.90,0003.29
2023-09-25 19:44:00,SystemResetWarning,0835.6,5.00,000.00,028.0,024.8,000.0,036.2,029.3,11.7,0000.0,0009.89,0003.90,0003.28
2023-09-25 19:45:00,SystemResetWarning,0835.6,5.01,000.00,027.8,024.2,000.0,036.1,029.2,10.9,0000.0,0009.25,0003.87,0003.27
2023-09-25 19:46:00,SystemResetWarning,0835.7,5.01,000.00,027.8,024.5,000.0,036.1,029.1,10.3,0000.0,0009.16,0003.85,0003.26
2023-09-25 19:47:00,SystemResetWarning,0835.6,5.00,000.00,027.7,024.8,000.0,036.1,029.1,9.9,0000.0,0009.15,0003.83,0003.25
2023-09-25 19:48:00,SystemResetWarning,0835.8,5.00,000.00,027.7,025.2,000.0,036.1,029.2,10.1,0000.0,0009.69,0003.78,0003.25
2023-09-25 19:49:00,SystemResetWarning,0835.6,5.00,000.00,027.7,025.6,000.0,036.1,029.3,10.3,0000.0,0009.30,0003.76,0003.26
2023-09-25 19:50:00,SystemResetWarning,0835.7,4.99,000.00,027.8,026.0,000.0,036.2,029.4,10.5,0000.0,0008.47,0003.73,0003.26
2023-09-25 19:51:00,SystemResetWarning,0835.6,4.99,000.00,027.8,026.3,000.0,036.2,029.5,10.6,0000.0,0008.25,0003.73,0003.25
2023-09-25 19:52:00,SystemResetWarning,0835.6,5.00,000.00,027.9,026.5,000.0,036.2,029.6,11.1,0000.0,0008.15,0003.74,0003.24
2023-09-25 19:53:00,SystemResetWarning,0835.8,5.00,000.00,027.9,026.8,000.0,036.2,029.6,10.7,0000.0,0008.59,0003.73,0003.23
2023-09-25 19:54:00,SystemResetWarning,0835.8,5.00,000.00,028.0,027.0,000.0,036.2,029.7,10.7,0000.0,0009.11,0003.75,0003.24
2023-09-25 19:55:00,SystemResetWarning,0835.6,5.00,000.00,028.0,027.1,000.0,036.2,029.8,10.7,0000.0,0010.38,0003.76,0003.25
2023-09-25 19:56:00,SystemResetWarning,0835.6,4.99,000.00,028.1,026.9,000.0,036.3,029.8,10.3,0000.0,0010.26,0003.75,0003.25
2023-09-25 19:57:00,SystemResetWarning,0835.6,5.00,000.00,028.0,025.3,000.0,036.2,029.5,10.5,0000.0,0010.13,0003.71,0003.25
2023-09-25 19:58:00,SystemResetWarning,0835.6,5.01,000.00,027.9,024.2,000.0,036.1,029.3,10.6,0000.0,0010.14,0003.71,0003.25
2023-09-25 19:59:00,SystemResetWarning,0835.6,5.01,000.00,027.8,024.3,000.0,036.1,029.3,10.9,-001.2,0009.99,0003.72,0003.24
